EW2997 Weather Reports


time (UTC)temp
C
wind
direction
speed
KPH
gust
KPH
rain 1hr
cm
rain 24hr
cm
rain mn
cm
humidity
%
barometer
mb
20260831024512 22 266 0.0 0.0 0.00 0.00 0.00 92 1024.0
20260831021509 23 299 0.0 0.0 0.00 0.00 0.00 90 1024.0
20260831014510 23 299 0.0 0.0 0.00 0.00 0.00 88 1024.0
20260831011508 23 54 0.0 0.0 0.00 0.00 0.00 88 1023.3
20260831004503 24 54 0.0 0.0 0.00 0.00 0.00 86 1022.9
20260831001502 24 54 0.0 0.0 0.00 0.00 0.00 83 1022.5
20260830234501 25 76 0.0 0.0 0.00 0.00 0.00 80 1022.2
20260830231459 26 76 0.0 0.0 0.00 0.00 0.00 79 1022.5
20260830224458 26 84 3.2 3.2 0.00 0.00 0.00 72 1022.2
20260830221455 27 70 0.0 0.0 0.00 0.00 0.00 68 1022.2
20260830214451 27 36 0.0 0.0 0.00 0.00 0.00 57 1022.2
20260830211449 29 12 1.6 1.6 0.00 0.00 0.00 46 1022.2
20260830204448 29 246 0.0 0.0 0.00 0.00 0.00 51 1022.2
20260830201446 30 240 0.0 0.0 0.00 0.00 0.00 51 1022.2
20260830194446 28 246 3.2 3.2 0.00 0.00 0.00 53 1022.5
20260830191443 29 324 3.2 3.2 0.00 0.00 0.00 52 1023.3
20260830184440 28 253 4.8 6.4 0.00 0.00 0.00 57 1023.7
20260830181436 27 78 3.2 3.2 0.00 0.00 0.00 60 1024.0
20260830174431 28 196 3.2 3.2 0.00 0.00 0.00 63 1024.3
20260830171428 26 262 1.6 1.6 0.00 0.00 0.00 66 1024.7
20260830164426 26 241 6.4 6.4 0.00 0.00 0.00 67 1025.0
20260830161425 25 240 3.2 3.2 0.00 0.00 0.00 70 1025.0
20260830154421 25 174 4.8 4.8 0.00 0.00 0.00 70 1025.0
20260830151419 24 180 0.0 0.0 0.00 0.00 0.00 76 1025.3
20260830144418 23 256 1.6 1.6 0.00 0.00 0.00 79 1025.3
20260830141415 22 281 0.0 0.0 0.00 0.00 0.00 80 1025.3
20260830134415 21 257 0.0 0.0 0.00 0.00 0.00 83 1025.0
20260830131413 21 265 3.2 3.2 0.00 0.00 0.00 82 1025.7
20260830124409 20 319 0.0 0.0 0.00 0.00 0.00 85 1025.7
20260830121407 18 54 0.0 0.0 0.00 0.00 0.00 90 1025.7
20260830114405 17 54 0.0 0.0 0.00 0.00 0.00 89 1025.7
20260830111400 16 54 0.0 0.0 0.00 0.00 0.00 94 1025.3
20260830104357 16 54 0.0 0.0 0.00 0.00 0.00 95 1025.7
20260830101354 16 60 0.0 0.0 0.00 0.00 0.00 94 1025.7
20260830094352 16 60 0.0 0.0 0.00 0.00 0.00 94 1025.3
20260830091347 16 60 0.0 0.0 0.00 0.00 0.00 93 1025.3
20260830084345 16 19 0.0 0.0 0.00 0.00 0.00 92 1025.7
20260830081344 16 19 0.0 0.0 0.00 0.00 0.00 90 1026.0
20260830074343 16 19 0.0 0.0 0.00 0.00 0.00 90 1026.0
20260830071343 16 19 0.0 0.0 0.00 0.00 0.00 90 1025.7
20260830064342 16 19 0.0 0.0 0.00 0.00 0.00 89 1026.4
20260830061337 16 19 0.0 0.0 0.00 0.00 0.00 88 1026.4
20260830054334 16 66 0.0 0.0 0.00 0.00 0.00 90 1026.4
20260830051333 15 36 0.0 0.0 0.00 0.00 0.00 88 1026.8
20260830044328 16 65 0.0 0.0 0.00 0.00 0.00 88 1026.4
20260830041326 15 60 1.6 1.6 0.00 0.00 0.00 88 1026.8
20260830034323 15 60 0.0 0.0 0.00 0.00 0.00 89 1026.4
20260830031323 15 60 0.0 0.0 0.00 0.00 0.00 86 1026.4